Home   Weather   Ontario   Past weeks
Flag for USA

Past Weather in Ontario, Oregon, USA — Yesterday and Last 2 Weeks

Now
93 °F

Sunny.


Feels Like: 89 °F
Forecast: 88 / 65 °F
Wind: 7 mph from North

Location: Ontario Municipal Airport

Current Time: Jul 15, 2019 at 6:18:44 pm

Latest Report: Jul 15, 2019 at 4:53 pm


Visibility: 10 mi

Pressure: 29.85 "Hg (27.75 "Hg at 656m altitude)

Humidity: 18%

Dew Point: 44 °F

Location of OntarioLocation

Past Weather in Ontario — Graph

°F

Ontario Temperature Yesterday

Maximum temperature yesterday: 96 °F (at 4:53 pm)
Minimum temperature yesterday: 69 °F (at 11:53 pm)
Average temperature yesterday: 81 °F

High & Low Weather Summary for the Past Weeks

 TemperatureHumidityPressure
High100 °F (Jul 13, 5:53 pm)75% (Jul 6, 1:53 am)30.07 "Hg (Jul 6, 1:53 am)
Low55 °F (Jul 5, 5:53 am)10% (Jul 7, 3:53 pm)29.70 "Hg (Jul 13, 6:53 pm)
Average78 °F37%29.89 "Hg
* Reported Jun 30 4:53 pm — Jul 15 4:53 pm, Ontario. Weather by CustomWeather, © 2019

Note: Actual official high and low records may vary slightly from our data, if they occured in-between our weather recording intervals... More about our weather records

Advertising

Ontario Weather History for the Previous 24 Hours

Scroll right to see more
 ConditionsComfort  
Time TempWeatherWind HumidityBarometerVisibility
4:53 pm
Mon, Jul 15
93 °FSunny.7 mph18%29.85 "Hg10 mi
3:53 pm93 °FPassing clouds.3 mph19%29.87 "Hg10 mi
2:53 pm92 °FSunny.3 mph21%29.89 "Hg10 mi
1:53 pm89 °FSunny.3 mph23%29.92 "Hg10 mi
12:53 pm86 °FSunny.No wind26%29.94 "Hg10 mi
11:53 am84 °FSunny.8 mph29%29.95 "Hg10 mi
10:53 am80 °FPassing clouds.8 mph35%29.96 "Hg10 mi
9:53 am75 °FPassing clouds.9 mph48%29.98 "Hg10 mi
8:53 am74 °FSunny.8 mph50%29.98 "Hg10 mi
7:53 am68 °FSunny.6 mph59%29.96 "Hg10 mi
6:53 am62 °FClear.3 mph70%29.96 "Hg10 mi
5:53 am63 °FClear.8 mph70%29.95 "Hg10 mi
4:53 am64 °FClear.No wind68%29.94 "Hg10 mi
3:53 am66 °FClear.6 mph65%29.93 "Hg10 mi
2:53 am63 °FClear.7 mph75%29.93 "Hg10 mi
1:53 am65 °FClear.7 mph73%29.94 "Hg10 mi
12:53 am66 °FClear.7 mph68%29.94 "Hg10 mi
11:53 pm
Sun, Jul 14
69 °FClear.No wind61%29.94 "Hg10 mi
10:53 pm73 °FClear.7 mph50%29.93 "Hg10 mi
9:53 pm73 °FSunny.3 mph51%29.91 "Hg10 mi
9:08 pm74 °FLight rain. Broken clouds.10 mph52%29.95 "Hg10 mi
9:00 pm74 °FThundershowers. Cloudy.8 mph50%29.94 "Hg10 mi
8:27 pm82 °FThunderstorms. Cloudy.16 mph31%30.01 "Hg2 mi
8:01 pm83 °FPartly sunny.33 mph27%29.93 "Hg2 mi
6:53 pm96 °FSunny.6 mph18%29.83 "Hg10 mi
Weather by CustomWeather, © 2019

See weather overview

LIVE PARTIAL LUNAR ECLIPSE – Watch the eclipse as it happens